Charter Quote
Worldwide +44-20-3874-8091 Call
Select Language Lang
SAFETY RELIABILITY EXPERIENCE

Volkel Airport (EHVK) - Jet Charter Services

AIRPORT INFORMATION
ICAOEHVK
IATAUDE
LOCATIONVolkel, Netherlands
FACILITY TYPEAIRPORT
Runway Length (ft) Width (ft) Surface Type Elevation (ft)
24L/06R 9931 74 ASP 71.96721
24R/06L 9922 148 ASP 71.96721

At Paramount Business Jets you can hire chartered private jets to and from Volkel Airport with as little as 4 hours of notice. All flights booked via Paramount Business Jets are operated by certified direct air carriers that meet and exceed the FAA part 135 and 121 protocol or a foreign equivalent safety authority. Furthermore, Paramount Business Jets subscribes to ARGUS for their third party safety checks of operators, aircraft, and crews prior each and every flight to and from Volkel Airport and worldwide.

  • Quote a trip using Volkel Airport or call us 24/7 - 365 days a year at +44-20-3874-8091.
Questions? Call +44-20-3874-8091

METAR Weather Data at Volkel Airport, EHVK, UDE

STATIONEHVK
OBSERVEDWed May 22, 09:25 UTC
NOWWed May 22, 09:32 UTC
AGE7 min ago
WINDvaries at 6 mph
VISIBILITY16 miles
CLOUDSovercast
TEMP59°F (15°C)
DEWPT46°F (8°C)
HUMIDITY63%
BAROMETER1020 hPa (30.12 in Hg)
METAREHVK 220925Z AUTO VRB05KT 9999 FEW029 SCT033 OVC330 15/08 Q1020 BLU 28004KT 9999 SCT025

Call us on +44-20-3874-8091 (24 Hours) to Hire a Private Jet or Get a Quick Quote.

Find Airports Near any Location

Processing
...